When you browse on this site, cookies collect data to enhance your experience and personalize the content and advertising you see.
Visit our Privacy Policy to learn more. By continuing to use the site, you agree to this use of cookies and data.
  • In Switzerland
  • List of Countries
  • For 7 days
  • Water Temperature
  • Weather Map
  • Weather Widgets
  • user-avatar
    Login

    Hourly Weather Kalgoorlie

    Today, 6 June, Saturday

    Time Temperature Precipitation Wind Pressure Humidity
    00:00 +16°C° 0 mm 3 mps 736 mmHg 42%
    01:00 +14°C° 0 mm 3 mps 736 mmHg 42%
    02:00 +14°C° 0 mm 3 mps 735 mmHg 43%
    03:00 +14°C° 0 mm 3 mps 736 mmHg 44%
    04:00 +13°C° 0 mm 3 mps 736 mmHg 45%
    05:00 +14°C° 0 mm 2 mps 736 mmHg 46%
    06:00 +13°C° 0 mm 3 mps 736 mmHg 45%
    07:00 +14°C° 0 mm 3 mps 737 mmHg 45%
    08:00 +14°C° 0 mm 3 mps 737 mmHg 44%
    09:00 +17°C° 0 mm 3 mps 737 mmHg 39%
    10:00 +19°C° 0 mm 3 mps 737 mmHg 35%
    11:00 +20°C° 0 mm 4 mps 737 mmHg 30%
    12:00 +21°C° 0 mm 4 mps 737 mmHg 28%
    13:00 +22°C° 0 mm 4 mps 736 mmHg 27%
    14:00 +23°C° 0 mm 4 mps 735 mmHg 26%
    15:00 +22°C° 0 mm 4 mps 735 mmHg 28%
    16:00 +21°C° 0 mm 4 mps 736 mmHg 31%
    17:00 +20°C° 0 mm 4 mps 736 mmHg 33%
    18:00 +19°C° 0 mm 4 mps 736 mmHg 36%
    19:00 +18°C° 0 mm 4 mps 736 mmHg 38%
    20:00 +17°C° 0 mm 4 mps 736 mmHg 40%
    21:00 +15°C° 0 mm 4 mps 736 mmHg 42%
    22:00 +15°C° 0 mm 4 mps 736 mmHg 44%
    23:00 +14°C° 0 mm 4 mps 736 mmHg 45%

    Tomorrow, 7 June, Sunday

    Time Temperature Precipitation Wind Pressure Humidity
    00:00 +13°C° 0 mm 4 mps 736 mmHg 48%
    01:00 +13°C° 0 mm 4 mps 735 mmHg 50%
    02:00 +12°C° 0 mm 4 mps 735 mmHg 52%
    03:00 +12°C° 0 mm 4 mps 735 mmHg 54%
    04:00 +11°C° 0 mm 4 mps 735 mmHg 56%
    05:00 +11°C° 0 mm 4 mps 735 mmHg 58%
    06:00 +11°C° 0 mm 4 mps 735 mmHg 58%
    07:00 +12°C° 0 mm 5 mps 736 mmHg 58%
    08:00 +12°C° 0 mm 5 mps 736 mmHg 59%
    09:00 +14°C° 0 mm 5 mps 736 mmHg 53%
    10:00 +16°C° 0 mm 5 mps 736 mmHg 47%
    11:00 +17°C° 0 mm 6 mps 736 mmHg 42%
    12:00 +19°C° 0 mm 5 mps 735 mmHg 40%
    13:00 +19°C° 0 mm 4 mps 734 mmHg 37%
    14:00 +20°C° 0 mm 4 mps 734 mmHg 35%
    15:00 +19°C° 0 mm 4 mps 734 mmHg 37%
    16:00 +18°C° 0 mm 3 mps 734 mmHg 39%
    17:00 +17°C° 0 mm 3 mps 734 mmHg 40%
    18:00 +15°C° 0 mm 4 mps 734 mmHg 42%
    19:00 +15°C° 0 mm 4 mps 735 mmHg 44%
    20:00 +14°C° 0 mm 4 mps 735 mmHg 46%
    21:00 +13°C° 0 mm 4 mps 735 mmHg 48%
    22:00 +13°C° 0 mm 4 mps 735 mmHg 49%
    23:00 +12°C° 0 mm 4 mps 736 mmHg 51%

    Day after tomorrow, 8 June, Monday

    Time Temperature Precipitation Wind Pressure Humidity
    00:00 +12°C° 0 mm 4 mps 735 mmHg 53%
    01:00 +11°C° 0 mm 3 mps 735 mmHg 55%
    02:00 +11°C° 0 mm 3 mps 735 mmHg 58%
    03:00 +10°C° 0 mm 3 mps 735 mmHg 60%
    04:00 +10°C° 0 mm 3 mps 735 mmHg 63%
    05:00 +9°C° 0 mm 3 mps 735 mmHg 65%
    06:00 +10°C° 0 mm 3 mps 735 mmHg 64%
    07:00 +10°C° 0 mm 3 mps 735 mmHg 62%
    08:00 +10°C° 0 mm 3 mps 735 mmHg 61%
    09:00 +12°C° 0 mm 3 mps 735 mmHg 54%
    10:00 +14°C° 0 mm 3 mps 735 mmHg 47%
    11:00 +17°C° 0 mm 3 mps 735 mmHg 40%
    12:00 +18°C° 0 mm 2 mps 735 mmHg 38%
    13:00 +20°C° 0 mm 1 mps 734 mmHg 36%
    14:00 +20°C° 0 mm 1 mps 733 mmHg 34%
    15:00 +19°C° 0 mm 1 mps 733 mmHg 37%
    16:00 +18°C° 0 mm 1 mps 734 mmHg 40%
    17:00 +15°C° 0 mm 1 mps 734 mmHg 43%
    18:00 +15°C° 0 mm 1 mps 734 mmHg 43%
    19:00 +15°C° 0 mm 2 mps 734 mmHg 43%
    20:00 +14°C° 0 mm 3 mps 735 mmHg 43%
    21:00 +13°C° 0 mm 3 mps 735 mmHg 45%
    22:00 +13°C° 0 mm 3 mps 735 mmHg 46%
    23:00 +12°C° 0 mm 3 mps 735 mmHg 47%

    9 June, Tuesday

    Time Temperature Precipitation Wind Pressure Humidity
    00:00 +12°C° 0 mm 3 mps 735 mmHg 49%
    01:00 +11°C° 0 mm 3 mps 735 mmHg 51%
    02:00 +11°C° 0 mm 3 mps 735 mmHg 52%
    03:00 +10°C° 0 mm 3 mps 735 mmHg 54%
    04:00 +10°C° 0 mm 3 mps 735 mmHg 55%
    05:00 +10°C° 0 mm 3 mps 735 mmHg 57%
    06:00 +10°C° 0 mm 3 mps 735 mmHg 55%
    07:00 +12°C° 0 mm 2 mps 735 mmHg 53%
    08:00 +12°C° 0 mm 2 mps 736 mmHg 52%
    09:00 +14°C° 0 mm 2 mps 735 mmHg 46%
    10:00 +16°C° 0 mm 2 mps 735 mmHg 40%
    11:00 +18°C° 0 mm 2 mps 735 mmHg 35%
    12:00 +19°C° 0 mm 2 mps 735 mmHg 33%
    13:00 +20°C° 0 mm 2 mps 734 mmHg 30%
    14:00 +21°C° 0 mm 1 mps 733 mmHg 28%
    15:00 +20°C° 0 mm 1 mps 734 mmHg 32%
    16:00 +18°C° 0 mm 1 mps 734 mmHg 36%
    17:00 +15°C° 0 mm 0 mps 734 mmHg 40%
    18:00 +16°C° 0 mm 1 mps 734 mmHg 39%
    19:00 +15°C° 0 mm 1 mps 734 mmHg 38%
    20:00 +15°C° 0 mm 2 mps 735 mmHg 38%
    21:00 +15°C° 0 mm 2 mps 735 mmHg 38%
    22:00 +15°C° 0 mm 2 mps 735 mmHg 39%
    23:00 +13°C° 0 mm 3 mps 735 mmHg 40%

    10 June, Wednesday

    Time Temperature Precipitation Wind Pressure Humidity
    00:00 +13°C° 0 mm 3 mps 735 mmHg 41%
    01:00 +12°C° 0 mm 3 mps 734 mmHg 41%
    02:00 +12°C° 0 mm 3 mps 734 mmHg 42%
    03:00 +12°C° 0 mm 3 mps 734 mmHg 43%
    04:00 +11°C° 0 mm 3 mps 734 mmHg 45%
    05:00 +11°C° 0 mm 3 mps 734 mmHg 46%
    06:00 +11°C° 0 mm 3 mps 734 mmHg 45%
    07:00 +11°C° 0 mm 3 mps 734 mmHg 44%
    08:00 +12°C° 0 mm 3 mps 734 mmHg 44%
    09:00 +14°C° 0 mm 4 mps 734 mmHg 37%
    10:00 +18°C° 0 mm 4 mps 734 mmHg 31%
    11:00 +20°C° 0 mm 5 mps 734 mmHg 25%
    12:00 +21°C° 0 mm 5 mps 733 mmHg 23%
    13:00 +22°C° 0 mm 5 mps 733 mmHg 22%
    14:00 +23°C° 0 mm 4 mps 732 mmHg 20%
    15:00 +21°C° 0 mm 3 mps 732 mmHg 22%
    16:00 +19°C° 0 mm 3 mps 732 mmHg 24%
    17:00 +18°C° 0 mm 2 mps 732 mmHg 27%
    18:00 +17°C° 0 mm 2 mps 732 mmHg 27%
    19:00 +17°C° 0 mm 3 mps 732 mmHg 27%
    20:00 +17°C° 0 mm 3 mps 732 mmHg 27%
    21:00 +15°C° 0 mm 4 mps 732 mmHg 28%
    22:00 +15°C° 0 mm 4 mps 732 mmHg 28%
    23:00 +15°C° 0 mm 4 mps 732 mmHg 28%

    11 June, Thursday

    Time Temperature Precipitation Wind Pressure Humidity
    00:00 +14°C° 0 mm 5 mps 731 mmHg 29%
    01:00 +14°C° 0 mm 5 mps 731 mmHg 30%
    02:00 +14°C° 0 mm 5 mps 731 mmHg 31%
    03:00 +13°C° 0 mm 5 mps 731 mmHg 33%
    04:00 +13°C° 0 mm 5 mps 730 mmHg 36%
    05:00 +13°C° 0 mm 5 mps 730 mmHg 38%
    06:00 +14°C° 0 mm 6 mps 730 mmHg 36%
    07:00 +15°C° 0 mm 7 mps 730 mmHg 35%
    08:00 +15°C° 0 mm 7 mps 730 mmHg 33%
    09:00 +17°C° 0 mm 8 mps 730 mmHg 30%
    10:00 +19°C° 0 mm 9 mps 730 mmHg 27%
    11:00 +22°C° 0 mm 10 mps 730 mmHg 25%
    12:00 +23°C° 0 mm 10 mps 729 mmHg 25%
    13:00 +23°C° 0 mm 10 mps 728 mmHg 26%
    14:00 +24°C° 0 mm 9 mps 728 mmHg 26%
    15:00 +23°C° 0 mm 8 mps 728 mmHg 28%
    16:00 +22°C° 0 mm 7 mps 727 mmHg 29%
    17:00 +21°C° 0 mm 5 mps 727 mmHg 30%
    18:00 +21°C° 0 mm 4 mps 727 mmHg 32%
    19:00 +20°C° 0 mm 4 mps 727 mmHg 35%
    20:00 +20°C° 0 mm 3 mps 727 mmHg 37%
    21:00 +19°C° 0.2 mm 4 mps 727 mmHg 46%
    22:00 +18°C° 0.2 mm 4 mps 726 mmHg 54%
    23:00 +17°C° 0.2 mm 5 mps 726 mmHg 63%
    Show more